Fergus Falls, MN

10:19 PM CST on December 14, 2017 (GMT -0600)
Fergus Falls Municipal-Mickelson

Weather History for KFFM - February, 2013

Change the Weather History Date:

Wednesday, February 6, 2013

  Actual Average Record
Temperature  
Mean Temperature 17 °F -  
Max Temperature 28 °F 18 °F 49 °F (1991)
Min Temperature 6 °F -1 °F -38 °F (1982)
Degree Days  
Heating Degree Days 48    
Moisture  
Dew Point 14 °F    
Average Humidity 79    
Maximum Humidity 93    
Minimum Humidity 69    
Precipitation  
Precipitation 0.00 in - - ()
Sea Level Pressure  
Sea Level Pressure 29.94 in    
Wind  
Wind Speed 8 mph (ESE)    
Max Wind Speed 17 mph    
Max Gust Speed 24 mph    
Visibility 10 miles    
Events Snow    
Averages and records for this station are not official NWS values.
T = Trace of Precipitation, MM = Missing Value Source: NWS Daily Summary

Daily Weather History Graph

Daily Weather History Graph

Search for Another Location

Airport or City:

Trip Planner

Search our weather history database for the weather conditions in past years. The results will help you decide how hot, cold, wet, or windy it might be!

Date:

Astronomy

Feb. 06, 2013 Rise Set
Actual Time 7:40 AM CST 5:37 PM CST
Civil Twilight 7:09 AM CST 6:08 PM CST
Nautical Twilight 6:33 AM CST 6:44 PM CST
Astronomical Twilight 5:58 AM CST 7:19 PM CST
Moon 4:32 AM CST (2/6) 1:50 PM CST (2/6)
Length of Visible Light 10h 59m
Length of Day
9h 56m
Waning Crescent, 17% of the Moon is Illuminated
Feb 6
Waning Crescent
Feb 10
New
Feb 17
First Quarter
Feb 25
Full
Mar 4
Last Quarter

Hourly Weather History & Observations

Time (CST) Temp. Windchill Dew Point Humidity Pressure Visibility Wind Dir Wind Speed Gust Speed Precip Events Conditions
12:11 AM 8.6 °F 0.1 °F 3.2 °F 79% 30.05 in 10.0 mi SSW 4.6 mph - N/A   Overcast
12:34 AM 8.6 °F 0.1 °F 3.2 °F 79% 30.05 in 10.0 mi South 4.6 mph - N/A   Overcast
12:53 AM 8.6 °F 0.1 °F 3.2 °F 79% 30.04 in 10.0 mi South 4.6 mph - N/A   Overcast
1:13 AM 8.6 °F -1.3 °F 3.2 °F 79% 30.04 in 10.0 mi SSE 5.8 mph - N/A   Mostly Cloudy
1:33 AM 6.8 °F -3.5 °F 3.2 °F 85% 30.03 in 10.0 mi SSE 5.8 mph - N/A   Scattered Clouds
1:53 AM 6.8 °F -3.5 °F 1.4 °F 79% 30.02 in 10.0 mi SSE 5.8 mph - N/A   Clear
2:13 AM 6.8 °F -3.5 °F 3.2 °F 85% 30.02 in 10.0 mi SE 5.8 mph - N/A   Clear
2:33 AM 6.8 °F -5.9 °F 3.2 °F 85% 30.01 in 10.0 mi SSE 8.1 mph - N/A   Clear
2:53 AM 8.6 °F -1.3 °F 3.2 °F 79% 30.01 in 10.0 mi SSE 5.8 mph - N/A   Clear
3:13 AM 8.6 °F 0.1 °F 3.2 °F 79% 30.01 in 10.0 mi ESE 4.6 mph - N/A   Scattered Clouds
3:33 AM 8.6 °F -2.6 °F 3.2 °F 79% 30.00 in 10.0 mi SE 6.9 mph - N/A   Scattered Clouds
3:53 AM 8.6 °F -3.7 °F 3.2 °F 79% 29.99 in 10.0 mi SSE 8.1 mph - N/A   Mostly Cloudy
4:13 AM 8.6 °F -3.7 °F 3.2 °F 79% 29.98 in 10.0 mi SE 8.1 mph - N/A   Overcast
4:33 AM 10.4 °F -0.4 °F 3.2 °F 73% 29.98 in 10.0 mi SE 6.9 mph - N/A   Overcast
4:53 AM 10.4 °F -1.5 °F 3.2 °F 73% 29.98 in 10.0 mi SE 8.1 mph - N/A   Overcast
5:13 AM 10.4 °F -1.5 °F 5.0 °F 79% 29.99 in 10.0 mi SE 8.1 mph - N/A   Overcast
5:33 AM 10.4 °F -1.5 °F 5.0 °F 79% 29.99 in 10.0 mi SE 8.1 mph - N/A   Overcast
5:53 AM 12.2 °F 0.7 °F 6.8 °F 79% 29.98 in 10.0 mi SE 8.1 mph - N/A   Overcast
6:13 AM 12.2 °F -0.2 °F 6.8 °F 79% 29.97 in 10.0 mi SE 9.2 mph - N/A   Overcast
6:33 AM 12.2 °F -0.2 °F 6.8 °F 79% 29.95 in 10.0 mi ESE 9.2 mph - N/A   Overcast
7:13 AM 15.8 °F 4.2 °F 8.6 °F 73% 29.93 in 10.0 mi ESE 9.2 mph - N/A   Scattered Clouds
7:33 AM 15.8 °F 4.2 °F 8.6 °F 73% 29.94 in 10.0 mi SE 9.2 mph - N/A   Scattered Clouds
7:53 AM 15.8 °F 3.4 °F 10.4 °F 79% 29.92 in 10.0 mi ESE 10.4 mph - N/A   Clear
8:13 AM 17.6 °F 7.3 °F 10.4 °F 73% 29.92 in 5.0 mi ESE 8.1 mph - N/A Snow Light Snow
8:33 AM 17.6 °F 6.4 °F 12.2 °F 79% 29.92 in 4.0 mi ESE 9.2 mph - N/A Snow Light Snow
8:53 AM 19.4 °F 8.6 °F 15.8 °F 86% 29.91 in 10.0 mi ESE 9.2 mph - N/A   Clear
9:13 AM 21.2 °F 9.5 °F 15.8 °F 80% 29.91 in 10.0 mi ESE 11.5 mph 17.3 mph N/A   Scattered Clouds
9:33 AM 21.2 °F 10.9 °F 15.8 °F 80% 29.90 in 10.0 mi ESE 9.2 mph - N/A   Mostly Cloudy
9:53 AM 21.2 °F 11.7 °F 17.6 °F 86% 29.92 in 10.0 mi East 8.1 mph - N/A   Mostly Cloudy
10:14 AM 23.0 °F 11.7 °F 17.6 °F 80% 29.90 in 10.0 mi ESE 11.5 mph - N/A   Scattered Clouds
10:33 AM 24.8 °F 14.6 °F 17.6 °F 74% 29.89 in 10.0 mi ESE 10.4 mph - N/A   Clear
10:53 AM 24.8 °F 11.9 °F 17.6 °F 74% 29.88 in 10.0 mi ESE 16.1 mph - N/A   Clear
11:14 AM 26.6 °F 14.7 °F 19.4 °F 74% 29.88 in 10.0 mi SE 15.0 mph - N/A   Clear
11:33 AM 26.6 °F 13.8 °F 19.4 °F 74% 29.87 in 10.0 mi SE 17.3 mph 24.2 mph N/A   Clear
11:53 AM 26.6 °F 14.7 °F 17.6 °F 69% 29.87 in 10.0 mi SE 15.0 mph - N/A   Clear
12:13 PM 26.6 °F 14.3 °F 17.6 °F 69% 29.86 in 10.0 mi SE 16.1 mph - N/A   Clear
12:33 PM 26.6 °F 13.8 °F 19.4 °F 74% 29.85 in 10.0 mi SE 17.3 mph - N/A   Clear
12:53 PM 26.6 °F 14.3 °F 19.4 °F 74% 29.84 in 10.0 mi SE 16.1 mph - N/A   Clear
1:14 PM 26.6 °F 15.7 °F 19.4 °F 74% 29.85 in 10.0 mi SE 12.7 mph - N/A   Clear
1:33 PM 26.6 °F 16.2 °F 19.4 °F 74% 29.84 in 10.0 mi SE 11.5 mph - N/A   Clear
1:53 PM 26.6 °F 15.7 °F 19.4 °F 74% 29.84 in 10.0 mi SE 12.7 mph - N/A   Clear
2:13 PM 26.6 °F 14.7 °F 19.4 °F 74% 29.83 in 10.0 mi SE 15.0 mph - N/A   Clear
2:33 PM 26.6 °F 16.2 °F 21.2 °F 80% 29.83 in 10.0 mi SE 11.5 mph - N/A   Clear
2:53 PM 26.6 °F 15.2 °F 21.2 °F 80% 29.84 in 10.0 mi SE 13.8 mph - N/A   Clear
3:13 PM 28.4 °F 19.1 °F 21.2 °F 74% 29.85 in 10.0 mi SE 10.4 mph - N/A   Clear
3:33 PM 28.4 °F 19.1 °F 21.2 °F 74% 29.85 in 10.0 mi SE 10.4 mph - N/A   Clear
3:53 PM 26.6 °F 16.8 °F 21.2 °F 80% 29.85 in 10.0 mi SE 10.4 mph - N/A   Clear
4:13 PM 26.6 °F 17.5 °F 21.2 °F 80% 29.85 in 10.0 mi SE 9.2 mph - N/A   Clear
4:33 PM 26.6 °F 18.2 °F 21.2 °F 80% 29.86 in 10.0 mi ESE 8.1 mph - N/A   Clear
4:53 PM 26.6 °F 19.1 °F 19.4 °F 74% 29.87 in 10.0 mi ESE 6.9 mph - N/A   Clear
5:13 PM 26.6 °F 19.1 °F 19.4 °F 74% 29.88 in 10.0 mi ESE 6.9 mph - N/A   Clear
5:33 PM 26.6 °F 19.1 °F 19.4 °F 74% 29.88 in 10.0 mi East 6.9 mph - N/A   Clear
5:53 PM 24.8 °F 16.9 °F 19.4 °F 80% 29.89 in 10.0 mi ESE 6.9 mph - N/A   Clear
6:13 PM 24.8 °F 15.3 °F 19.4 °F 80% 29.89 in 10.0 mi East 9.2 mph - N/A   Clear
6:33 PM 24.8 °F 16.9 °F 19.4 °F 80% 29.90 in 10.0 mi East 6.9 mph - N/A   Clear
6:53 PM 24.8 °F 16.9 °F 19.4 °F 80% 29.92 in 10.0 mi East 6.9 mph - N/A   Clear
7:13 PM 24.8 °F 15.3 °F 19.4 °F 80% 29.93 in 10.0 mi ENE 9.2 mph - N/A   Clear
7:33 PM 24.8 °F 16.1 °F 17.6 °F 74% 29.94 in 10.0 mi East 8.1 mph - N/A   Scattered Clouds
7:54 PM 24.8 °F 16.9 °F 17.6 °F 74% 29.95 in 10.0 mi ENE 6.9 mph - N/A   Scattered Clouds
8:13 PM 23.0 °F 13.1 °F 17.6 °F 80% 29.96 in 10.0 mi ENE 9.2 mph - N/A   Scattered Clouds
8:33 PM 23.0 °F 13.1 °F 17.6 °F 80% 29.97 in 10.0 mi East 9.2 mph - N/A   Clear
8:54 PM 23.0 °F 13.1 °F 17.6 °F 80% 29.98 in 10.0 mi ENE 9.2 mph - N/A   Clear
9:13 PM 23.0 °F 13.1 °F 17.6 °F 80% 29.98 in 10.0 mi East 9.2 mph - N/A   Clear
9:33 PM 23.0 °F 13.1 °F 17.6 °F 80% 29.99 in 10.0 mi ENE 9.2 mph - N/A   Clear
9:54 PM 23.0 °F 13.9 °F 19.4 °F 86% 30.00 in 7.0 mi East 8.1 mph - N/A   Clear
10:13 PM 23.0 °F 14.7 °F 19.4 °F 86% 30.00 in 7.0 mi East 6.9 mph - N/A   Clear
10:33 PM 23.0 °F 13.9 °F 19.4 °F 86% 30.01 in 7.0 mi East 8.1 mph - N/A   Clear
10:54 PM 23.0 °F 14.7 °F 19.4 °F 86% 30.01 in 7.0 mi ENE 6.9 mph - N/A   Scattered Clouds
11:13 PM 21.2 °F 10.1 °F 19.4 °F 93% 30.02 in 7.0 mi East 10.4 mph - N/A   Mostly Cloudy
11:33 PM 21.2 °F 11.7 °F 19.4 °F 93% 30.03 in 7.0 mi ENE 8.1 mph - N/A   Scattered Clouds